GW6253 Weather Reports


time (UTC)temp
C
wind
direction
speed
KPH
gust
KPH
rain 1hr
cm
rain 24hr
cm
rain mn
cm
humidity
%
barometer
mb
20260505170157 14 83 0.0 1.6 0.00 0.00 0.00 78 1016.0
20260505165657 14 49 1.6 3.2 0.00 0.00 0.00 78 1016.0
20260505165157 14 47 4.8 4.8 0.00 0.00 0.00 78 1016.0
20260505164657 14 36 1.6 3.2 0.00 0.00 0.00 77 1016.0
20260505164156 14 26 3.2 3.2 0.00 0.00 0.00 78 1016.0
20260505163657 13 1 1.6 1.6 0.00 0.00 0.00 78 1016.0
20260505163157 13 359 1.6 1.6 0.00 0.00 0.00 80 1016.0
20260505162656 13 16 4.8 4.8 0.00 0.00 0.00 79 1016.0
20260505162157 13 26 3.2 3.2 0.00 0.00 0.00 79 1016.0
20260505161657 13 13 3.2 3.2 0.00 0.00 0.00 80 1016.0
20260505161157 13 329 3.2 3.2 0.00 0.00 0.00 81 1016.0
20260505160656 13 340 3.2 4.8 0.00 0.00 0.00 80 1016.0
20260505160157 13 342 3.2 4.8 0.00 0.00 0.00 80 1016.0
20260505153156 13 345 1.6 3.2 0.00 0.00 0.00 81 1016.0
20260505152656 13 359 3.2 3.2 0.00 0.00 0.00 81 1016.0
20260505152158 13 21 0.0 1.6 0.00 0.00 0.00 82 1016.0
20260505151657 13 359 3.2 3.2 0.00 0.00 0.00 81 1016.0
20260505151156 13 349 1.6 3.2 0.00 0.00 0.00 82 1016.0
20260505150657 12 328 1.6 3.2 0.00 0.00 0.00 82 1016.0
20260505150158 12 13 1.6 1.6 0.00 0.00 0.00 83 1016.0
20260505140159 12 354 1.6 3.2 0.00 0.00 0.00 85 1016.0
20260505130157 12 355 1.6 3.2 0.00 0.00 0.00 85 1015.0
20260505124658 12 344 1.6 3.2 0.00 0.00 0.00 85 1015.0
20260505124156 12 6 3.2 3.2 0.00 0.00 0.00 86 1015.0
20260505123656 12 8 3.2 3.2 0.00 0.00 0.00 86 1015.0
20260505123157 12 328 1.6 3.2 0.00 0.00 0.00 86 1015.0
20260505122656 12 357 3.2 3.2 0.00 0.00 0.00 87 1015.0
20260505122157 12 353 1.6 3.2 0.00 0.00 0.00 87 1015.0
20260505121658 12 336 1.6 3.2 0.00 0.00 0.00 86 1015.0
20260505121157 12 354 1.6 3.2 0.00 0.00 0.00 86 1015.0
20260505120656 12 350 1.6 3.2 0.00 0.00 0.00 86 1015.0
20260505120156 12 13 0.0 1.6 0.00 0.00 0.00 86 1015.0
20260505115656 12 345 1.6 3.2 0.00 0.00 0.00 86 1015.0
20260505115202 12 336 1.6 3.2 0.00 0.00 0.00 86 1015.0
20260505114658 12 338 1.6 3.2 0.00 0.00 0.00 86 1015.0
20260505114156 12 354 1.6 3.2 0.00 0.00 0.00 86 1015.0
20260505113656 12 4 3.2 3.2 0.00 0.00 0.00 86 1015.0
20260505113157 12 3 1.6 3.2 0.00 0.00 0.00 86 1015.0
20260505112656 12 355 1.6 3.2 0.00 0.00 0.00 86 1015.0
20260505112157 12 353 1.6 3.2 0.00 0.00 0.00 86 1015.0
20260505111657 12 340 1.6 3.2 0.00 0.00 0.00 86 1015.0
20260505111159 12 338 1.6 3.2 0.00 0.00 0.00 85 1015.0
20260505110657 12 340 1.6 3.2 0.00 0.00 0.00 85 1015.0
20260505110157 12 336 1.6 3.2 0.00 0.00 0.00 86 1015.0
20260505102156 12 344 3.2 4.8 0.00 0.00 0.00 87 1015.0
20260505101657 12 355 1.6 3.2 0.00 0.00 0.00 87 1015.0
20260505101157 12 354 1.6 3.2 0.00 0.00 0.00 86 1015.0
20260505100656 12 309 1.6 3.2 0.00 0.00 0.00 86 1015.0
20260505100156 12 355 1.6 4.8 0.00 0.00 0.00 87 1015.0
20260505095656 12 339 3.2 3.2 0.00 0.00 0.00 86 1015.0
20260505095156 12 3 1.6 3.2 0.00 0.00 0.00 87 1015.0
20260505094656 12 343 1.6 3.2 0.00 0.00 0.00 86 1015.0
20260505094156 12 347 1.6 6.4 0.00 0.00 0.00 87 1015.0
20260505093656 12 354 1.6 3.2 0.00 0.00 0.00 87 1015.0
20260505093158 12 343 1.6 3.2 0.00 0.00 0.00 87 1015.0
20260505092658 12 346 1.6 3.2 0.00 0.00 0.00 86 1015.0
20260505092157 12 330 1.6 1.6 0.00 0.00 0.00 87 1015.0
20260505091656 12 0 3.2 3.2 0.00 0.00 0.00 87 1015.0
20260505091157 12 320 1.6 3.2 0.00 0.00 0.00 87 1015.0
20260505090657 12 347 1.6 3.2 0.00 0.00 0.00 87 1014.0
20260505090156 12 344 0.0 3.2 0.00 0.00 0.00 88 1014.0
20260505085657 12 342 1.6 3.2 0.00 0.00 0.00 88 1014.0
20260505085157 12 351 1.6 3.2 0.00 0.00 0.00 87 1014.0
20260505084657 12 346 1.6 3.2 0.00 0.00 0.00 87 1014.0
20260505084156 12 332 0.0 1.6 0.00 0.00 0.00 87 1014.0
20260505083657 12 327 1.6 3.2 0.00 0.00 0.00 88 1014.0
20260505083156 12 48 1.6 3.2 0.00 0.00 0.00 87 1015.0
20260505082208 12 89 0.0 3.2 0.00 0.00 0.00 88 1015.0
20260505081658 12 7 1.6 1.6 0.00 0.00 0.00 88 1014.0
20260505081157 12 346 3.2 3.2 0.00 0.00 0.00 88 1014.0
20260505080656 12 349 1.6 3.2 0.00 0.00 0.00 88 1014.0
20260505080158 12 345 3.2 3.2 0.00 0.00 0.00 88 1015.0
20260505075657 12 0 1.6 3.2 0.00 0.00 0.00 88 1015.0
20260505075156 12 342 1.6 3.2 0.00 0.00 0.00 89 1014.0
20260505074656 11 321 1.6 3.2 0.00 0.00 0.00 89 1014.0
20260505074156 11 325 1.6 4.8 0.00 0.00 0.00 89 1014.0
20260505073657 11 345 1.6 3.2 0.00 0.00 0.00 89 1014.0
20260505073156 11 345 1.6 3.2 0.00 0.00 0.00 89 1014.0
20260505072656 11 320 1.6 3.2 0.00 0.00 0.00 89 1014.0
20260505072157 11 334 1.6 3.2 0.00 0.00 0.00 89 1014.0
20260505071656 11 336 3.2 6.4 0.00 0.00 0.00 89 1014.0
20260505071156 11 324 1.6 3.2 0.00 0.00 0.00 89 1014.0
20260505070656 11 320 3.2 9.7 0.00 0.00 0.00 89 1014.0
20260505070158 11 345 1.6 3.2 0.00 0.00 0.00 89 1014.0
20260505065656 11 289 3.2 6.4 0.00 0.00 0.00 89 1014.0
20260505065159 11 335 1.6 3.2 0.00 0.00 0.00 89 1014.0
20260505064656 11 311 3.2 6.4 0.00 0.00 0.00 89 1014.0
20260505064156 11 319 1.6 3.2 0.00 0.00 0.00 89 1014.0
20260505063658 11 319 3.2 6.4 0.00 0.00 0.00 89 1014.0
20260505063157 11 349 1.6 3.2 0.00 0.00 0.00 89 1014.0
20260505062656 11 332 1.6 3.2 0.00 0.00 0.00 89 1014.0
20260505062157 11 303 3.2 8.0 0.00 0.00 0.00 89 1014.0
20260505061657 11 319 3.2 6.4 0.00 0.00 0.00 89 1014.0
20260505061157 11 304 1.6 3.2 0.00 0.00 0.00 89 1014.0
20260505060656 11 335 1.6 3.2 0.00 0.00 0.00 88 1014.0
20260505060156 11 305 1.6 3.2 0.00 0.00 0.00 88 1014.0
20260505055656 11 328 1.6 3.2 0.00 0.00 0.00 88 1014.0
20260505055156 12 321 1.6 3.2 0.00 0.00 0.00 88 1014.0
20260505054657 12 337 1.6 3.2 0.00 0.00 0.00 87 1014.0
20260505054157 12 259 3.2 4.8 0.00 0.00 0.00 87 1014.0
20260505053656 12 299 3.2 4.8 0.00 0.00 0.00 87 1014.0
20260505053156 12 298 1.6 6.4 0.00 0.00 0.00 87 1014.0
20260505052656 12 316 1.6 3.2 0.00 0.00 0.00 87 1014.0
20260505052156 12 300 1.6 3.2 0.00 0.00 0.00 87 1014.0
20260505051656 12 277 3.2 6.4 0.00 0.00 0.00 86 1014.0
20260505051156 12 283 4.8 9.7 0.00 0.00 0.00 86 1014.0
20260505050657 12 286 3.2 9.7 0.00 0.00 0.00 86 1014.0
20260505050157 12 259 4.8 11.3 0.00 0.00 0.00 86 1014.0
20260505041657 12 280 3.2 8.0 0.00 0.00 0.00 84 1013.0
20260505041157 12 282 3.2 4.8 0.00 0.00 0.00 84 1013.0
20260505040656 12 282 3.2 6.4 0.00 0.00 0.00 84 1013.0
20260505040156 12 271 3.2 6.4 0.00 0.00 0.00 84 1013.0
20260505035656 13 293 6.4 14.5 0.00 0.00 0.00 83 1013.0
20260505035156 13 275 6.4 14.5 0.00 0.00 0.00 83 1013.0
20260505034656 13 301 6.4 14.5 0.00 0.00 0.00 83 1013.0
20260505034156 13 326 1.6 6.4 0.00 0.00 0.00 83 1013.0
20260505033656 13 309 6.4 9.7 0.00 0.00 0.00 82 1013.0
20260505033156 13 300 4.8 8.0 0.00 0.00 0.00 82 1013.0
20260505032656 13 289 3.2 9.7 0.00 0.00 0.00 82 1012.0
20260505032156 13 325 3.2 4.8 0.00 0.00 0.00 82 1012.0
20260505031656 13 338 3.2 11.3 0.00 0.00 0.00 82 1012.0
20260505031156 13 272 3.2 9.7 0.00 0.00 0.00 81 1012.0
20260505030657 14 247 1.6 3.2 0.00 0.00 0.00 81 1012.0
20260505030158 14 296 3.2 8.0 0.00 0.00 0.00 80 1012.0
20260505025656 14 294 3.2 9.7 0.00 0.00 0.00 80 1012.0
20260505025158 15 302 3.2 4.8 0.00 0.00 0.00 79 1012.0
20260505024658 15 303 3.2 8.0 0.00 0.00 0.00 78 1012.0
20260505024159 15 288 3.2 8.0 0.00 0.00 0.00 78 1012.0
20260505023657 15 300 1.6 4.8 0.00 0.00 0.00 77 1012.0
20260505023158 16 278 3.2 11.3 0.00 0.00 0.00 76 1012.0
20260505022658 16 312 4.8 9.7 0.00 0.00 0.00 74 1012.0
20260505022158 16 313 3.2 9.7 0.00 0.00 0.00 74 1012.0
20260505021658 16 282 3.2 4.8 0.00 0.00 0.00 74 1012.0
20260505021158 16 301 3.2 11.3 0.00 0.00 0.00 74 1012.0
20260505020658 16 311 4.8 6.4 0.00 0.00 0.00 74 1012.0
20260505020157 16 267 6.4 12.9 0.00 0.00 0.00 72 1012.0
20260505015656 16 306 4.8 12.9 0.00 0.00 0.00 73 1012.0
20260505015156 17 328 4.8 12.9 0.00 0.00 0.00 73 1012.0
20260505014656 17 288 3.2 6.4 0.00 0.00 0.00 72 1012.0
20260505014156 17 323 6.4 11.3 0.00 0.00 0.00 73 1012.0
20260505013656 17 307 6.4 11.3 0.00 0.00 0.00 73 1012.0
20260505013157 17 318 6.4 14.5 0.00 0.00 0.00 72 1012.0
20260505012656 17 313 8.0 17.7 0.00 0.00 0.00 71 1012.0
20260505012157 17 310 8.0 16.1 0.00 0.00 0.00 72 1012.0
20260505011656 17 291 9.7 16.1 0.00 0.00 0.00 71 1012.0
20260505011156 18 308 3.2 9.7 0.00 0.00 0.00 70 1012.0
20260505010656 18 319 4.8 14.5 0.00 0.00 0.00 70 1012.0
20260505010158 18 314 4.8 11.3 0.00 0.00 0.00 69 1012.0
20260505005658 19 308 3.2 14.5 0.00 0.00 0.00 68 1012.0
20260505005156 19 322 6.4 11.3 0.00 0.00 0.00 68 1012.0
20260505004657 20 330 6.4 12.9 0.00 0.00 0.00 66 1012.0
20260505004156 20 290 1.6 6.4 0.00 0.00 0.00 65 1012.0
20260505003656 20 270 3.2 4.8 0.00 0.00 0.00 64 1012.0
20260505003158 20 310 3.2 6.4 0.00 0.00 0.00 65 1012.0
20260505002657 20 317 1.6 4.8 0.00 0.00 0.00 65 1012.0
20260505002156 20 322 6.4 14.5 0.00 0.00 0.00 66 1012.0
20260505001656 20 282 8.0 14.5 0.00 0.00 0.00 64 1012.0
20260505001156 20 308 8.0 12.9 0.00 0.00 0.00 64 1012.0
20260505000658 20 334 3.2 6.4 0.00 0.00 0.00 65 1012.0
20260505000157 20 290 8.0 14.5 0.00 0.00 0.00 64 1012.0
20260504235656 20 316 3.2 6.4 0.00 0.00 0.00 64 1012.0
20260504235156 20 336 8.0 11.3 0.00 0.00 0.00 65 1012.0
20260504234657 21 323 8.0 19.3 0.00 0.00 0.00 63 1012.0
20260504234156 21 268 9.7 14.5 0.00 0.00 0.00 63 1012.0
20260504233656 21 309 3.2 4.8 0.00 0.00 0.00 63 1012.0
20260504233156 22 319 6.4 9.7 0.00 0.00 0.00 61 1012.0
20260504232656 21 319 3.2 6.4 0.00 0.00 0.00 61 1012.0
20260504232156 21 281 4.8 9.7 0.00 0.00 0.00 62 1012.0
20260504231657 21 303 1.6 4.8 0.00 0.00 0.00 62 1012.0
20260504231156 21 313 6.4 12.9 0.00 0.00 0.00 63 1012.0
20260504230656 21 299 8.0 16.1 0.00 0.00 0.00 62 1012.0
20260504230156 21 320 6.4 11.3 0.00 0.00 0.00 62 1012.0
20260504225656 21 294 3.2 12.9 0.00 0.00 0.00 61 1012.0
20260504225156 22 264 4.8 9.7 0.00 0.00 0.00 61 1012.0
20260504224656 22 233 3.2 6.4 0.00 0.00 0.00 62 1012.0
20260504224156 22 207 1.6 4.8 0.00 0.00 0.00 61 1012.0
20260504223657 22 258 1.6 3.2 0.00 0.00 0.00 59 1012.0
20260504223156 22 254 3.2 4.8 0.00 0.00 0.00 60 1013.0
20260504222656 22 286 3.2 6.4 0.00 0.00 0.00 60 1013.0
20260504222156 22 242 3.2 6.4 0.00 0.00 0.00 60 1013.0
20260504221656 22 237 3.2 4.8 0.00 0.00 0.00 61 1013.0
20260504221156 22 324 6.4 9.7 0.00 0.00 0.00 60 1013.0
20260504220656 22 321 8.0 11.3 0.00 0.00 0.00 60 1013.0
20260504220157 22 328 3.2 6.4 0.00 0.00 0.00 59 1013.0
20260504215657 22 255 3.2 6.4 0.00 0.00 0.00 59 1013.0
20260504215156 22 317 1.6 6.4 0.00 0.00 0.00 59 1013.0
20260504214657 21 267 1.6 3.2 0.00 0.00 0.00 62 1013.0
20260504214157 21 7 3.2 6.4 0.00 0.00 0.00 60 1013.0
20260504213656 22 331 3.2 8.0 0.00 0.00 0.00 60 1013.0
20260504213156 22 333 1.6 4.8 0.00 0.00 0.00 60 1013.0
20260504212657 21 191 3.2 4.8 0.00 0.00 0.00 60 1013.0
20260504212156 21 257 3.2 4.8 0.00 0.00 0.00 63 1013.0
20260504211656 21 305 4.8 12.9 0.00 0.00 0.00 64 1013.0
20260504211156 21 34 0.0 3.2 0.00 0.00 0.00 62 1013.0
20260504210657 21 29 4.8 9.7 0.00 0.00 0.00 62 1013.0
20260504210156 20 22 3.2 6.4 0.00 0.00 0.00 62 1013.0
20260504205656 20 156 1.6 4.8 0.00 0.00 0.00 64 1013.0
20260504205156 20 192 3.2 8.0 0.00 0.00 0.00 66 1013.0
20260504204657 19 168 8.0 12.9 0.00 0.00 0.00 65 1013.0
20260504204157 19 157 4.8 6.4 0.00 0.00 0.00 67 1013.0
20260504203656 19 164 6.4 11.3 0.00 0.00 0.00 66 1013.0
20260504203156 19 169 8.0 11.3 0.00 0.00 0.00 66 1013.0
20260504202657 19 337 4.8 6.4 0.00 0.00 0.00 66 1014.0
20260504202156 19 237 3.2 4.8 0.00 0.00 0.00 65 1014.0
20260504201656 19 174 3.2 6.4 0.00 0.00 0.00 66 1014.0
20260504201156 18 359 1.6 3.2 0.00 0.00 0.00 68 1014.0
20260504200656 18 10 6.4 8.0 0.00 0.00 0.00 67 1014.0
20260504200156 18 152 1.6 3.2 0.00 0.00 0.00 67 1014.0
20260504195657 18 354 1.6 8.0 0.00 0.00 0.00 67 1014.0
20260504195156 18 242 3.2 4.8 0.00 0.00 0.00 67 1014.0
20260504194656 18 210 3.2 6.4 0.00 0.00 0.00 69 1014.0
20260504194158 18 10 4.8 6.4 0.00 0.00 0.00 69 1014.0
20260504193656 18 194 3.2 4.8 0.00 0.00 0.00 68 1014.0
20260504193157 17 357 6.4 9.7 0.00 0.00 0.00 70 1014.0
20260504192657 17 168 3.2 4.8 0.00 0.00 0.00 70 1014.0
20260504192156 17 340 4.8 6.4 0.00 0.00 0.00 72 1014.0
20260504191657 17 162 1.6 6.4 0.00 0.00 0.00 72 1014.0
20260504191156 17 321 1.6 3.2 0.00 0.00 0.00 72 1014.0
20260504190656 16 117 3.2 4.8 0.00 0.00 0.00 73 1014.0
20260504190156 16 350 3.2 8.0 0.00 0.00 0.00 73 1014.0
20260504185658 16 309 1.6 4.8 0.00 0.00 0.00 75 1014.0
20260504185200 16 162 3.2 6.4 0.00 0.00 0.00 74 1014.0
20260504184656 16 102 3.2 4.8 0.00 0.00 0.00 75 1014.0
20260504183830 15 172 3.2 4.8 0.00 0.00 0.00 76 1014.0
20260504183156 15 166 6.4 9.7 0.00 0.00 0.00 76 1014.0
20260504182656 15 131 3.2 6.4 0.00 0.00 0.00 76 1014.0
20260504182157 15 19 1.6 1.6 0.00 0.00 0.00 76 1014.0
20260504181657 15 329 3.2 3.2 0.00 0.00 0.00 77 1014.0
20260504181156 15 219 0.0 1.6 0.00 0.00 0.00 78 1014.0
20260504180657 15 128 3.2 6.4 0.00 0.00 0.00 78 1014.0
20260504180157 15 347 1.6 3.2 0.00 0.00 0.00 78 1014.0
20260504175657 15 235 3.2 4.8 0.00 0.00 0.00 77 1014.0
20260504175158 15 162 4.8 6.4 0.00 0.00 0.00 78 1014.0
20260504174656 15 105 3.2 3.2 0.00 0.00 0.00 79 1014.0
20260504174156 14 111 1.6 3.2 0.00 0.00 0.00 79 1014.0
20260504173657 14 59 3.2 4.8 0.00 0.00 0.00 79 1014.0
20260504173157 14 158 3.2 4.8 0.00 0.00 0.00 79 1014.0
20260504172657 14 46 3.2 3.2 0.00 0.00 0.00 80 1014.0
20260504172156 14 343 1.6 3.2 0.00 0.00 0.00 80 1014.0
20260504171657 13 344 0.0 1.6 0.00 0.00 0.00 81 1014.0
20260504171200 13 74 1.6 1.6 0.00 0.00 0.00 81 1014.0
20260504170657 13 157 1.6 1.6 0.00 0.00 0.00 81 1014.0